Lawrence, MA

7:03 PM EDT on August 28, 2016 (GMT -0400)
Lawrence Municipal

Weather History for KLWM - October, 2012

Change the Weather History Date:

Tuesday, October 16, 2012

  Actual Average Record
Temperature  
Mean Temperature 50 °F -  
Max Temperature 61 °F 64 °F 85 °F (1956)
Min Temperature 39 °F 41 °F 26 °F (1939)
Degree Days  
Heating Degree Days 14    
Moisture  
Dew Point 44 °F    
Average Humidity 69    
Maximum Humidity 90    
Minimum Humidity 42    
Precipitation  
Precipitation 0.27 in - - ()
Sea Level Pressure  
Sea Level Pressure 29.68 in    
Wind  
Wind Speed 8 mph (WNW)    
Max Wind Speed 18 mph    
Max Gust Speed 32 mph    
Visibility 8 miles    
Events Rain    
Averages and records for this station are not official NWS values.
T = Trace of Precipitation, MM = Missing Value Source: NWS Daily Summary

Daily Weather History Graph

Daily Weather History Graph

Search for Another Location

Airport or City:

Trip Planner

Search our weather history database for the weather conditions in past years. The results will help you decide how hot, cold, wet, or windy it might be!

Date:

Astronomy

Oct. 16, 2012 Rise Set
Actual Time 6:59 AM EDT 5:59 PM EDT
Civil Twilight 6:30 AM EDT 6:28 PM EDT
Nautical Twilight 5:58 AM EDT 7:00 PM EDT
Astronomical Twilight 5:25 AM EDT 7:33 PM EDT
Moon 8:21 AM EDT (10/16) 6:38 PM EDT (10/16)
Length of Visible Light 11h 57m
Length of Day
11h 00m
New Moon, 2% of the Moon is Illuminated
Oct 16
New Moon
Oct 21
First Quarter
Oct 29
Full
Nov 6
Last Quarter
Nov 13
New

Hourly Weather History & Observations

Time (EDT) Temp. Windchill Dew Point Humidity Pressure Visibility Wind Dir Wind Speed Gust Speed Precip Events Conditions
12:25 AM 62.6 °F - 59.0 °F 88% 29.63 in 2.5 mi West 10.4 mph - 0.07 in Rain Heavy Rain
12:32 AM 62.6 °F - 57.2 °F 82% 29.63 in 3.0 mi West 9.2 mph - 0.09 in Rain Rain
12:41 AM 62.6 °F - 57.2 °F 82% 29.62 in 2.5 mi West 8.1 mph - 0.13 in Rain Heavy Rain
12:51 AM 60.8 °F - 57.2 °F 88% 29.62 in 3.0 mi West 5.8 mph - 0.17 in Rain Heavy Rain
12:54 AM 61.0 °F - 57.9 °F 90% 29.62 in 3.0 mi West 5.8 mph - 0.19 in Rain Heavy Rain
1:01 AM 60.8 °F - 57.2 °F 88% 29.61 in 2.5 mi West 4.6 mph - 0.04 in Rain Heavy Rain
1:13 AM 60.8 °F - 57.2 °F 88% 29.60 in 4.0 mi Calm Calm - 0.07 in Rain Rain
1:54 AM 60.1 °F - 57.0 °F 90% 29.61 in 7.0 mi Calm Calm - 0.08 in   Overcast
2:54 AM 60.1 °F - 57.0 °F 90% 29.59 in 10.0 mi WSW 5.8 mph - 0.00 in   Overcast
3:54 AM 59.0 °F - 53.1 °F 81% 29.58 in 10.0 mi WNW 8.1 mph - N/A   Overcast
4:54 AM 57.9 °F - 52.0 °F 81% 29.58 in 10.0 mi West 9.2 mph - 0.00 in Rain Light Rain
5:54 AM 55.0 °F - 48.9 °F 80% 29.59 in 10.0 mi West 8.1 mph - 0.00 in   Overcast
6:54 AM 54.0 °F - 44.1 °F 69% 29.60 in 10.0 mi West 10.4 mph - N/A   Overcast
7:54 AM 53.6 °F - 41.0 °F 62% 29.62 in 10.0 mi West 13.8 mph 23.0 mph N/A   Overcast
8:54 AM 52.0 °F - 39.0 °F 61% 29.63 in 10.0 mi West 16.1 mph 21.9 mph N/A   Partly Cloudy
9:54 AM 54.0 °F - 37.9 °F 55% 29.65 in 10.0 mi WNW 13.8 mph 23.0 mph N/A   Clear
10:54 AM 53.1 °F - 36.0 °F 52% 29.65 in 10.0 mi WNW 16.1 mph 27.6 mph N/A   Overcast
11:54 AM 54.0 °F - 36.0 °F 51% 29.66 in 10.0 mi WNW 17.3 mph 27.6 mph N/A   Mostly Cloudy
12:54 PM 55.0 °F - 35.1 °F 47% 29.65 in 10.0 mi West 18.4 mph 25.3 mph N/A   Mostly Cloudy
1:54 PM 54.0 °F - 34.0 °F 47% 29.65 in 10.0 mi WNW 15.0 mph 32.2 mph N/A   Mostly Cloudy
2:54 PM 55.9 °F - 33.1 °F 42% 29.68 in 10.0 mi NW 13.8 mph 27.6 mph N/A   Clear
3:54 PM 55.4 °F - 33.8 °F 44% 29.70 in 10.0 mi NW 9.2 mph - N/A   Clear
4:54 PM 54.0 °F - 33.1 °F 45% 29.73 in 10.0 mi WNW 9.2 mph - N/A   Clear
5:54 PM 52.0 °F - 33.1 °F 49% 29.75 in 10.0 mi NNW 5.8 mph - N/A   Clear
6:54 PM 48.9 °F - 34.0 °F 56% 29.80 in 10.0 mi Calm Calm - N/A   Clear
7:54 PM 45.0 °F 42.6 °F 34.0 °F 65% 29.82 in 10.0 mi North 4.6 mph - N/A   Clear
8:54 PM 43.0 °F 41.3 °F 34.0 °F 71% 29.84 in 10.0 mi North 3.5 mph - N/A   Clear
9:54 PM 43.0 °F - 35.1 °F 74% 29.86 in 10.0 mi Calm Calm - N/A   Clear
10:54 PM 39.9 °F - 34.0 °F 79% 29.88 in 10.0 mi Calm Calm - N/A   Clear
11:54 PM 39.9 °F - 35.1 °F 83% 29.91 in 10.0 mi Calm Calm - N/A   Clear